Regional Weather Roundup
Issued by NWS

Home | Current Version | Previous Version | Text Only | Print | Product List | Glossary On
Versions: 1 2 3 4 5 6 7 8 9 10 11 12 13 14 15 16 17 18 19 20 21 22 23 24 25 26 27 28 29 30 31 32 33 34 35 36 37 38 39 40 41 42 43 44 45 46 47 48 49 50
000
ASPQ40 PGUM 090812
RWRPQ
WEATHER ROUNDUP FOR THE MARIANAS AND MICRONESIA
NATIONAL WEATHER SERVICE TIYAN GU
600 PM CHST FRI DEC 09 2016

GUZ001>004-090900-
MARIANA ISLANDS-

CITY           SKY/WX    TMP DP  RH WIND       PRES   REMARKS
GUAM AIRPORT   PTCLDY    82  73  74 E7        29.79R
ANDERSEN AFB   PTCLDY    81  72  74 E12       29.80S
ROTA AIRPORT   PTCLDY    79  73  83 E8        29.79R
TINIAN AP      PTCLDY    84  75  74 E6        29.78R HX  92
SAIPAN AP      MOCLDY    81  75  83 E9        29.79R

$$

PMZ161-090900-
REPUBLIC OF PALAU-

CITY           SKY/WX    TMP DP  RH WIND       PRES   REMARKS
KOROR AP       MOCLDY    84  79  84 NE5       29.72S HX  96
KOROR WSO      CLOUDY    88  77  70 NE3       29.74R HX 100

$$

PMZ171>174-090900-
FEDERATED STATES OF MICRONESIA-

CITY           SKY/WX    TMP DP  RH WIND       PRES   REMARKS
YAP AIRPORT    MOCLDY    84  79  84 E9        29.74R HX  96
CHUUK AP       LGT RAIN  79  79 100 VRB3      29.74R
POHNPEI AP     NOT AVBL
POHNPEI WSO    MOCLDY    82  73  74 E6        29.76R
KOSRAE AP      NOT AVBL

$$

PMZ181-090900-
REPUBLIC OF THE MARSHALL ISLANDS-

CITY           SKY/WX    TMP DP  RH WIND       PRES   REMARKS
KWAJALEIN AP   PTCLDY    82  73  74 E16       29.79R
MAJURO AP      NOT AVBL
MAJURO WSO     CLOUDY    82  77  83 NE12      29.77  HX  91

$$




USA.gov is the U.S. government's official web portal to all federal, state and local government web resources and services.